x

9442396 - La Push, Wa (lapw1) Weather Station

9:30 - Tue 24th May 2016 All times are PDT. -7 hours from GMT.

  • Wind
    2mph, 3mph gusts
  • Sea Temp 53°f
  • Ar Temp 54°f
  • Sea Pressure 1018mb
  • 9442396 - La Push, Wa
  • 9442396 - La Push, Wa

More Historic Weather Station data

Upgrade to MSW Pro to gain access to the past 30 days of data for over 8000 Wavebouys and Weather Stations around the globe.

Join Pro

Comparision Forecast

View Surf forecast
   
Ter 05/24 9:30 2 3 mph 1018mb 53f 54f
9:24 3
mph
1018mb 53f 54f
9:18 3 5 mph 1017.9mb 53f 54f
9:12 3 5 mph 1017.9mb 53f 54f
9:06 5 6 mph 1017.9mb 53f 54f
9:00 3 5 mph 1017.8mb 53f 54f
8:36 5 6 mph 1017.7mb 52f 55f
8:30 3 6 mph 1017.6mb 51f 55f
8:24 5 6 mph 1017.7mb 51f 55f
8:18 5 6 mph 1017.7mb 51f 55f
8:12 5
mph
1017.6mb 51f 55f
8:06 3 5 mph 1017.6mb 51f 55f
8:00 3 5 mph 1017.6mb 51f 55f
7:36  -  mph 1017.5mb 50f 55f
7:30  -  mph 1017.5mb 50f 55f
7:24  -  mph 1017.5mb 50f 55f
7:18  -  mph 1017.5mb 50f 55f
7:12  -  mph 1017.4mb 50f 55f
7:06  -  mph - - 55f
7:00  -  mph 1017.5mb 50f 55f
6:36 5 6 mph - - 55f
6:30 5 6 mph 1017.6mb 50f 55f
6:24 6
mph
1017.6mb 50f 55f
6:18 6 7 mph 1017.7mb 50f 55f
6:12 6 7 mph 1017.6mb 50f 55f
6:06 6 8 mph 1017.5mb 50f 55f
6:00 7 8 mph 1017.5mb 50f 55f
5:36  -  mph 1017.6mb 50f 55f
5:30  -  mph 1017.6mb 50f 55f
5:24  -  mph 1017.7mb 50f 55f
5:18  -  mph 1017.6mb 50f 55f
5:12  -  mph 1017.7mb 50f 55f
5:06  -  mph 1017.7mb 50f 55f
5:00  -  mph 1017.6mb 50f 55f
4:36  -  mph 1017.6mb 50f 55f
4:30  -  mph 1017.6mb 50f 55f
4:24  -  mph 1017.6mb 50f 55f
4:18  -  mph 1017.6mb 50f 55f
4:12  -  mph 1017.6mb 50f 55f
4:06  -  mph 1017.6mb 50f 55f
4:00  -  mph 1017.6mb 50f 55f
3:24  -  mph 1017.6mb 50f -
3:18  -  mph 1017.7mb 50f -
3:12  -  mph 1017.6mb 50f -
3:06  -  mph 1017.7mb 50f -
3:00  -  mph 1017.6mb 50f -
2:36 7 9 mph 1017.6mb - -
2:30 8 9 mph 1017.6mb - -
2:24 7 8 mph 1017.6mb - -
2:18 7 8 mph 1017.6mb - -
2:12 7 8 mph 1017.6mb - -
2:06 7 8 mph 1017.6mb - -
2:00 7 8 mph - - -
1:36 7 8 mph 1017.5mb 50f 53f
1:30 7 9 mph 1017.5mb 50f 53f
1:24 7 9 mph 1017.4mb 50f 54f
1:18 7 8 mph 1017.4mb 50f 54f
1:12 7 8 mph 1017.4mb 50f 54f
1:06 8 9 mph 1017.4mb 50f 54f
1:00 7 8 mph 1017.3mb 50f 54f
12:36 6 7 mph 1017.1mb 51f 54f
12:30 6 8 mph 1017.1mb 51f 54f
12:24 7 8 mph 1017.1mb 51f 54f
12:18 6 7 mph 1017mb 51f 54f
12:12 6 7 mph 1016.9mb 51f 54f
12:06 6 7 mph 1017mb 51f 54f
12:00 6 7 mph 1016.9mb 51f 54f
11:36 6 7 mph 1016.9mb 51f 53f
11:30 7 8 mph 1016.9mb 51f 53f
11:24 6 7 mph 1016.9mb 51f 53f
11:18 6 7 mph 1016.8mb 51f 53f
11:12 6
mph
1016.8mb 51f 53f
11:06 5 6 mph 1016.7mb 51f 53f
11:00 5 6 mph 1016.7mb 51f 53f
10:36 5 7 mph 1016.6mb 53f 53f
10:30 7 10 mph 1016.5mb 53f 53f
10:24 8 9 mph - - 53f
10:18 7 10 mph 1016.5mb 55f 53f
10:12 7 8 mph 1016.4mb 54f 53f
10:06 6 8 mph 1016.3mb 55f 53f
10:00 6 7 mph 1016.3mb 55f 53f
9:36 7 9 mph 1016.2mb 56f 53f
9:30 6 9 mph 1016.2mb 56f 53f
9:24 8 10 mph 1016.3mb 56f 53f
9:18 7 9 mph 1016.2mb 56f 53f
9:12 7 8 mph 1016.1mb 56f 53f
9:06 6 8 mph 1016.1mb 56f 53f
9:00 6 8 mph 1016.1mb 56f 53f
8:36 6 7 mph 1015.9mb 56f 53f
8:30 5 6 mph 1015.8mb 56f 53f
8:24 2 5 mph 1015.8mb 56f 52f
8:18  -  3 mph 1015.8mb 56f 53f
8:12  -  2 mph 1015.8mb 56f 53f
8:06 1 3 mph 1015.7mb 56f 53f
8:00 2 3 mph 1015.7mb 56f 53f
7:36 7 9 mph 1015.6mb 56f 52f
7:30 3 7 mph 1015.6mb 56f 52f
7:24 2 8 mph 1015.5mb 56f 52f
7:18 5 7 mph 1015.5mb 56f 51f
7:12 2 5 mph 1015.5mb 56f 50f
7:06 3 5 mph 1015.4mb 56f 50f
7:00 2 6 mph 1015.3mb 55f 50f
6:36 3 6 mph 1015.3mb 53f 51f
6:30 3 6 mph 1015.3mb 52f 51f
6:24 5 6 mph 1015.3mb 52f 51f
6:18 5
mph
1015.2mb 51f 51f
6:12 3 6 mph 1015.2mb 51f 51f
6:06 3 5 mph 1015.2mb 51f 51f
6:00 2 5 mph 1015.2mb 51f 51f
5:36 5 6 mph 1015.2mb 51f 51f
5:30 3 6 mph 1015.1mb 51f 51f
5:24 5 6 mph 1015.2mb 51f 51f
5:18 5 6 mph 1015.1mb 51f 51f
5:12 5 6 mph 1015.2mb 51f 51f
5:06 5 7 mph 1015.2mb 51f 51f
5:00 6 7 mph 1015.1mb 51f 51f
4:36 2 6 mph 1015mb 51f 51f
4:30 5 6 mph 1015.1mb 51f 51f
4:24 5 7 mph 1015.2mb 51f 51f
4:18 3 6 mph 1015.1mb 51f 51f
4:12 6 8 mph 1015.1mb 51f 51f
4:06 5 7 mph 1015.1mb 51f 51f
4:00 5 6 mph 1015.1mb 51f 51f
3:36 2 3 mph 1015.1mb 51f 52f
3:30 2 3 mph 1015.2mb 51f 52f
3:24 2 3 mph 1015.2mb 51f 52f
3:18 2 3 mph 1015.2mb 51f 52f
3:12 1
mph
1015.2mb 51f 52f
3:06 2
mph
1015.2mb 51f 52f
3:00  -  2 mph 1015.1mb 51f 52f
2:36 1 2 mph 1015.2mb 51f 52f
2:30 1 2 mph 1015.2mb 52f 52f
2:24 2
mph
1015.2mb 52f 52f
2:18  -  2 mph 1015.3mb 52f 52f
2:12  -  1 mph 1015.3mb 52f 52f
2:06 1 2 mph 1015.3mb 52f 52f
2:00 1 2 mph 1015.2mb 52f 52f
1:36 1
mph
1015.3mb 51f 52f
1:30  -  2 mph 1015.3mb 51f 52f
1:24 2 3 mph 1015.2mb 51f 52f
1:18 3 5 mph 1015.3mb 51f 51f
1:12 2 3 mph 1015.3mb 51f 51f
1:06 3
mph
1015.3mb 51f 51f
1:00 2
mph
1015.3mb 51f 52f
12:36 2 3 mph 1015.3mb 51f 51f
12:30 2 3 mph 1015.3mb 51f 51f
12:24 3 5 mph 1015.3mb 51f 51f
12:18 3
mph
1015.2mb 51f 51f
12:12 3 5 mph 1015.3mb 51f 51f
12:06 5 6 mph 1015.3mb 51f 51f
12:00 3 5 mph 1015.3mb 51f 51f
Seg 05/23 11:36 1 2 mph 1015.1mb 50f 51f
11:30 2 3 mph 1015.1mb 50f 52f
11:24 2 3 mph 1015mb 50f 51f
11:18 2 3 mph 1014.9mb 50f 52f
11:12 2 3 mph 1014.9mb 50f 52f
11:06 2 3 mph 1014.9mb 50f 52f
11:00 2 3 mph 1014.9mb 50f 52f
10:36 2 3 mph 1014.9mb 50f 52f
10:30 2 3 mph 1014.9mb 50f 53f
10:24 1 2 mph 1014.9mb 51f 53f
10:18 1 2 mph 1014.9mb 51f 53f
10:12 1 2 mph 1015mb 51f 53f
10:06 1 3 mph 1015mb 51f 53f
10:00 1 3 mph 1015mb 50f 53f
9:54 1 2 mph 1015mb 51f 53f
9:48 2 3 mph 1014.9mb 51f 54f
9:36 2 3 mph 1014.9mb 51f 54f
9:30 2 5 mph 1014.8mb 51f 54f
9:24 2 5 mph 1014.7mb 51f 54f
9:18 2
mph
1014.7mb 51f 55f
9:12 3 5 mph 1014.6mb 51f 55f
9:06 2 5 mph 1014.6mb 51f 55f
9:00 1 3 mph 1014.6mb 51f 55f
8:36 5 10 mph 1014.5mb 51f 56f
8:30 8 10 mph 1014.5mb 51f 56f
8:24 8 10 mph 1014.5mb 51f 56f
8:18 8 11 mph 1014.5mb 51f 56f
8:12 10 11 mph 1014.5mb 51f 56f
8:06 9 13 mph 1014.4mb 51f 55f
8:00 9 11 mph 1014.4mb 51f 56f
7:54 9 11 mph 1014.4mb 51f 55f
7:48 9 11 mph 1014.4mb 51f 56f
7:36  -  mph 1014.3mb 51f 55f
7:30  -  mph 1014.3mb 51f 56f
7:24  -  mph 1014.3mb 50f 56f
7:18  -  mph 1014.4mb 50f 56f
7:12  -  mph 1014.4mb 50f 56f
7:06  -  mph 1014.4mb 50f 56f
7:00  -  mph 1014.4mb 50f 56f
6:54  -  mph 1014.3mb 50f 56f
6:48  -  mph 1014.3mb 50f 56f
6:36 11 14 mph 1014.3mb 49f 56f
6:30 10 14 mph 1014.3mb 49f 55f
6:24 9 11 mph 1014.4mb 49f 55f
6:18 7 10 mph 1014.4mb 50f 55f
6:12 8 9 mph 1014.4mb 49f 56f
6:06 7 9 mph 1014.4mb 49f 56f
6:00 8 9 mph 1014.4mb 49f 56f
5:54 8 9 mph 1014.4mb 49f 56f
5:48 8 9 mph 1014.4mb 49f 56f
5:36  -  mph - 49f 56f
5:30  -  mph - 49f 56f
5:24  -  mph - 49f 56f
5:18  -  mph - 49f 56f
5:12  -  mph - 49f 56f
5:06  -  mph - 49f 56f
5:00  -  mph - 49f 56f
4:54  -  mph - 49f 56f
4:48  -  mph - 49f 55f
4:36 8 9 mph 1014.9mb 49f 55f
4:30 8 9 mph 1014.9mb 49f 55f
4:24 7 8 mph 1014.9mb 49f 56f
4:18 7 8 mph 1014.9mb 49f 55f
4:12 7 8 mph 1014.9mb 49f 56f
4:06 7 9 mph 1014.9mb 49f 56f
4:00 7 8 mph 1014.9mb 49f 55f
3:54 7 9 mph 1014.8mb 49f 55f
3:48 7 8 mph 1014.9mb 49f 55f
3:36  -  mph - 49f 55f
3:30  -  mph - 49f 55f
3:24  -  mph - 49f 55f
3:18  -  mph - 49f 55f
3:12  -  mph - 49f 55f
3:06  -  mph - 49f 55f
3:00  -  mph - 49f 55f
2:54  -  mph - 49f 55f
2:48  -  mph - 49f 55f
2:36 6 7 mph 1014.7mb 49f 55f
2:30 6 7 mph 1014.8mb 49f 55f
2:24 6 7 mph 1014.7mb 49f 55f
2:18 5 6 mph 1014.8mb 49f 55f
2:12 5 7 mph 1014.7mb 49f 55f
2:06 5 7 mph 1014.7mb 49f 55f
2:00 5 7 mph 1014.7mb 49f 55f
1:36 7 8 mph 1014.7mb 49f 55f
1:30 7 9 mph 1014.7mb 49f 55f
1:24 6 8 mph 1014.6mb 49f 55f
1:18 6 7 mph 1014.5mb 48f 55f
1:12 5 7 mph 1014.5mb 48f 55f
1:06 2 6 mph 1014.6mb 48f 55f
1:00 6 9 mph 1014.5mb 48f 55f
12:54 7 8 mph 1014.4mb 48f 55f
12:48 7 10 mph 1014.4mb 48f 55f
12:36 8 9 mph 1014.3mb 47f 55f
12:30 9 10 mph 1014.3mb 47f 55f
12:24 10 11 mph 1014.3mb 47f 55f
12:18 9 13 mph 1014.2mb 47f 55f
12:12 10 13 mph 1014.2mb 47f 55f
12:06 9 11 mph 1014.3mb 47f 55f
12:00 8 13 mph 1014.2mb 47f 55f
11:54 10 13 mph 1014.2mb 48f 55f
11:48 9 13 mph 1014.2mb 48f 56f
11:36 8 10 mph 1014.2mb 48f 56f
11:30 9 13 mph 1014.1mb 48f 56f
11:24 9 13 mph 1014.1mb 48f 55f
11:18 9 11 mph 1014.1mb 48f 56f
11:12 9 13 mph 1014.1mb 48f 56f
11:06 9 11 mph 1014.1mb 48f 56f
11:00 8 11 mph 1014.1mb 48f 56f
10:54 9 10 mph 1014.1mb 48f 56f
10:48 8 11 mph 1014.1mb 48f 56f
10:36 9 13 mph 1014.2mb 48f 56f
10:30 10 13 mph 1014.2mb 48f 56f
10:24 8 10 mph 1014.2mb 49f 56f
10:18 8 10 mph 1014.2mb 49f 56f
10:12 7 9 mph 1014.2mb 49f 56f
10:06 7 10 mph 1014.2mb 49f 56f
10:00 9 11 mph 1014.2mb 50f 56f
9:54 8 11 mph 1014.1mb 50f 56f
9:48 9 10 mph 1014.2mb 51f 56f
9:36 8 9 mph 1014.1mb 52f 56f
9:30 6 8 mph 1014.1mb 52f 56f
9:24 6 8 mph 1014.2mb 52f 56f
9:18 6 10 mph 1014.1mb 52f 56f
9:12 6 9 mph 1014mb 53f 56f
9:06 5 6 mph 1014mb 53f 55f
9:00 5 8 mph 1014mb 53f 55f
8:54 3 7 mph 1014.1mb 53f 55f
8:48 3 6 mph 1014mb 53f 54f
8:36 5 7 mph 1014mb 54f 53f
8:30 5 6 mph 1014mb 54f 53f
8:24 5 6 mph 1014mb 54f 52f
8:18 5 6 mph 1014mb 54f 51f
8:12 5 7 mph 1014mb 54f 51f
8:06 3 6 mph 1013.9mb 55f 51f
8:00 5 6 mph 1013.9mb 55f 51f
7:36 5 8 mph 1013.8mb 54f 50f
7:30 6 7 mph 1013.8mb 54f 50f
7:24 6 8 mph 1013.8mb 54f 50f
7:18 7 8 mph 1013.9mb 54f 50f
7:12 5 8 mph 1013.8mb 54f 50f
7:06 6 8 mph 1013.8mb 54f 50f
7:00 6 8 mph 1013.8mb 54f 50f
6:54 7 9 mph 1013.7mb 54f 50f
6:48 7 9 mph 1013.6mb 54f 50f
6:36 7 9 mph 1013.6mb 54f 49f
6:30 7 8 mph 1013.6mb 53f 50f
6:24 6 8 mph 1013.6mb 53f 49f
6:18 6 8 mph 1013.7mb 53f 49f
6:12 6 8 mph 1013.7mb 52f 49f
6:06 5 7 mph 1013.7mb 51f 49f
6:00 5 7 mph 1013.7mb 50f 49f
5:54 6 7 mph 1013.7mb 50f 49f
5:48 6 8 mph 1013.7mb 50f 49f
5:36 6 8 mph 1013.7mb 49f 49f
5:30 6 7 mph 1013.7mb 49f 49f
5:24 5 8 mph 1013.7mb 49f 49f
5:18 5 8 mph 1013.7mb 49f 49f
5:12 6 8 mph 1013.6mb 49f 49f
5:06 6 7 mph 1013.6mb 49f 49f
5:00 6 8 mph 1013.6mb 49f 49f
4:54 5 7 mph 1013.6mb 49f 49f
4:48 5 7 mph 1013.6mb 49f 49f
4:36 6 7 mph 1013.5mb 49f 49f
4:30 6 7 mph 1013.4mb 49f 49f
4:24 5 7 mph 1013.5mb 49f 49f
4:18 6 7 mph 1013.5mb 49f 49f
4:12 5 8 mph 1013.5mb 49f 49f
4:06 6 7 mph 1013.5mb 49f 49f
4:00 5 7 mph 1013.4mb 49f 49f
3:54 5 6 mph 1013.4mb 49f 49f
3:36 5 7 mph 1013.5mb 49f 50f
3:30 5 8 mph 1013.6mb 49f 50f
3:24 5 6 mph 1013.6mb 49f 50f
3:18 5 6 mph 1013.6mb 49f 50f
3:12 5 6 mph 1013.6mb 49f 50f
3:06 3 5 mph 1013.6mb 49f 50f
3:00 5 6 mph 1013.6mb 49f 50f
2:54 5 6 mph 1013.6mb 49f 50f
2:48 3 5 mph 1013.6mb 49f 50f
2:36 3 5 mph 1013.6mb 49f 51f
2:30 2 5 mph 1013.6mb 49f 51f
2:24 3 5 mph 1013.6mb 49f 51f
2:18 3 5 mph 1013.6mb 49f 51f
2:12 2 5 mph 1013.6mb 49f 51f
2:06 3 5 mph 1013.6mb 49f 51f
2:00 3 5 mph 1013.7mb 49f 51f
1:36 3 6 mph 1013.8mb 49f 51f
1:30 5 7 mph 1013.8mb 49f 51f
1:24 3 6 mph 1013.8mb 49f 51f
1:18 5 7 mph 1013.8mb 49f 51f
1:12 5 7 mph 1013.9mb 49f 51f
1:06 5 6 mph 1013.9mb 48f 51f
1:00 3 6 mph 1013.9mb 48f 51f
12:54 3 7 mph 1013.9mb 48f 51f
12:48 3 6 mph 1013.9mb 48f 51f
12:36 3 6 mph 1014mb 48f 52f
12:30 2 5 mph 1014mb 48f 52f
12:24 3 6 mph 1014mb 48f 52f
12:18 3 5 mph 1014mb 48f 52f
12:12 3 6 mph 1014mb 48f 52f
12:06 3 6 mph 1014mb 49f 52f
12:00 3 7 mph 1013.9mb 49f 52f
Dom 05/22 11:54 3 7 mph 1013.9mb 49f 52f
11:48 5 7 mph 1013.9mb 49f 52f
11:36 5 8 mph 1013.8mb 48f 52f
11:30 3 6 mph 1013.8mb 48f 53f
11:24 5 11 mph 1013.8mb 48f 53f
11:18 8 11 mph 1013.8mb 48f 53f
11:12 6 10 mph 1013.8mb 48f 53f
11:06 3 6 mph 1013.8mb 48f 53f
11:00 2 6 mph 1013.8mb 48f 53f
10:54 3 6 mph 1013.8mb 48f 53f
10:48 5 7 mph 1013.9mb 48f 52f
10:36 2 3 mph 1013.9mb 48f 53f
10:30 2 3 mph 1013.9mb 48f 53f
10:24 2 5 mph 1013.9mb 48f 53f
10:18 3 7 mph 1013.8mb 48f 53f
10:12 3 7 mph 1013.8mb 48f 53f
10:06 3 7 mph 1013.7mb 48f 53f
10:00 2 7 mph 1013.8mb 48f 53f
9:54 5 7 mph 1013.8mb 48f 53f
9:48 3 6 mph 1013.7mb 48f 53f
9:36  -  mph 1013.7mb 48f 53f
9:30  -  mph 1013.7mb 48f 53f
9:24  -  mph 1013.6mb 48f 53f
9:18  -  mph 1013.6mb 48f 53f
9:12  -  mph 1013.5mb 48f 53f
9:06  -  mph 1013.6mb 48f 53f
9:00  -  mph 1013.5mb 48f 54f
8:54  -  mph 1013.6mb 48f 54f
8:48  -  mph 1013.5mb 48f 54f
8:36 9 13 mph 1013.5mb 48f 54f
8:30 7 11 mph 1013.5mb 48f 54f
8:24 8 10 mph 1013.6mb 48f 54f
8:18 6 10 mph 1013.6mb 48f 54f
8:12 8 11 mph 1013.6mb 48f 54f
8:06 7 10 mph 1013.6mb 48f 54f
8:00 8 11 mph 1013.7mb 49f 55f
7:54 7 10 mph 1013.7mb 48f 54f
7:48 7 10 mph 1013.8mb 48f 55f
7:36  -  mph 1013.8mb 48f 55f
7:30  -  mph 1013.7mb 48f 55f
7:24  -  mph 1013.7mb 48f 55f
7:18  -  mph 1013.6mb 48f 55f
7:12  -  mph 1013.6mb 47f 55f
7:06  -  mph 1013.7mb 47f 55f
7:00  -  mph 1013.7mb 47f 55f
6:36  -  mph 1013.7mb 47f 56f
6:30  -  mph 1013.7mb 47f 56f
6:24  -  mph 1013.7mb 47f 56f
6:18  -  mph 1013.8mb 47f 56f
6:12  -  mph 1013.8mb 47f 55f
6:06  -  mph 1013.8mb 47f 55f
6:00  -  mph 1013.8mb 47f 55f
5:54  -  mph 1013.8mb 47f 55f
5:48  -  mph 1013.8mb 47f 55f
5:36  -  mph - 47f 55f
5:30  -  mph - 47f 55f
5:24  -  mph - 47f 55f
5:18  -  mph - 47f 55f
5:12  -  mph - 47f 55f
5:06  -  mph - 47f 55f
5:00  -  mph - 47f 55f
4:54  -  mph - 47f 55f
4:48  -  mph - 46f 55f
4:36 9 13 mph 1013.8mb 46f -
4:30 10 14 mph 1013.8mb 46f -
4:24 10 13 mph 1013.8mb 47f -
4:18 10 11 mph 1013.8mb 47f -
4:12 8 10 mph 1013.7mb 46f -
4:06 8 11 mph 1013.7mb 46f -
4:00 9 11 mph 1013.7mb 46f -
3:54 9 11 mph 1013.8mb 46f -
3:48 8 11 mph 1013.9mb 46f -
3:36  -  mph 1013.8mb 46f 55f
3:30  -  mph 1013.8mb 46f 55f
3:24  -  mph 1013.8mb 46f 55f
3:18  -  mph 1013.8mb 46f 55f
3:12  -  mph 1013.8mb 46f 55f
3:06  -  mph 1013.8mb 46f 55f
3:00  -  mph 1013.7mb 46f 55f
2:54  -  mph 1013.7mb 46f 55f
2:48  -  mph 1013.7mb 46f 55f
2:36 11 15 mph 1013.7mb 47f 55f
2:30 10 15 mph 1013.6mb 47f 55f
2:24 11 15 mph 1013.7mb 47f 55f
2:18 13 15 mph 1013.6mb 47f 55f
2:12 11 14 mph 1013.6mb 47f 55f
2:06 10 14 mph 1013.7mb 47f 55f
2:00 11 15 mph 1013.6mb 47f 55f
1:54 11 17 mph 1013.6mb 47f 55f
1:48 10 14 mph 1013.6mb 47f 54f
1:36 10 13 mph 1013.6mb 47f 54f
1:30 8 11 mph 1013.6mb 47f 54f
1:24 8 10 mph 1013.6mb 47f 54f
1:18 7 10 mph 1013.6mb 47f 54f
1:12 8 10 mph 1013.6mb 47f 54f
1:06 6 9 mph 1013.6mb 47f 54f
1:00 7 10 mph 1013.5mb 47f 54f
12:54 8 10 mph 1013.5mb 47f 54f
12:48 9 11 mph 1013.5mb 47f 54f
12:36 9 13 mph 1013.6mb 47f 54f
12:30 10 13 mph 1013.5mb 47f 54f
12:24 10 13 mph 1013.5mb 47f 54f
12:18 10 13 mph 1013.6mb 47f 54f
12:12 13 16 mph 1013.6mb 47f 54f
12:06 11 15 mph 1013.6mb 47f 54f
12:00 11 17 mph 1013.5mb 47f 54f
11:36 13 16 mph 1013.4mb 47f 53f
11:30 7 9 mph 1013.5mb 47f 53f
11:24 6 10 mph 1013.5mb 47f 53f
11:18 8 11 mph 1013.6mb 47f 53f
11:12 8 11 mph 1013.7mb 47f 53f
11:06 9 14 mph 1013.6mb 47f 52f
11:00 7 8 mph 1013.7mb 47f 52f
10:54 8 11 mph 1013.7mb 47f 53f
10:48 9 14 mph 1013.8mb 47f 54f
10:36 13 15 mph 1013.6mb 47f 54f
10:30 10 15 mph 1013.6mb 47f 54f
10:24 8 15 mph 1013.6mb 47f 54f
10:18 11 17 mph 1013.6mb 47f 55f
10:12 7 13 mph 1013.6mb 47f 54f
10:06 8 13 mph 1013.6mb 47f 54f
10:00 9 14 mph 1013.6mb 47f 54f
9:54 9 13 mph 1013.6mb 48f 54f
9:48 10 14 mph - - 54f
9:36 9 16 mph 1013.5mb 49f 54f
9:30 8 13 mph 1013.5mb 50f 54f
9:24 9 16 mph 1013.3mb 50f 54f
9:18 8 15 mph 1013.4mb 51f 54f
9:12 6 11 mph 1013.4mb 51f 54f
9:06 7 13 mph 1013.4mb 51f 54f
9:00 11 14 mph 1013.4mb 52f 54f
8:54 8 13 mph 1013.4mb 52f 54f
8:48 6 10 mph 1013.4mb 52f 54f
8:36 7 10 mph 1013.4mb 52f 54f
8:30 6 13 mph 1013.4mb 52f 54f
8:24 7 11 mph 1013.3mb 52f 53f
8:18 7 10 mph 1013.3mb 52f 53f
8:12 7 11 mph 1013.4mb 53f 53f
8:06 8 14 mph 1013.3mb 52f 53f
8:00 6 9 mph 1013.2mb 52f 53f
7:54 6 8 mph 1013.3mb 52f 53f
7:48 6 11 mph 1013.3mb 52f 53f
7:36 7 9 mph 1013.3mb 52f 53f
7:30 6 9 mph 1013.3mb 52f 52f
7:24 5 7 mph 1013.2mb 53f 52f
7:18 6 9 mph 1013.2mb 53f 52f
7:12 3 8 mph 1013.2mb 53f 52f
7:06 7 9 mph 1013.1mb 53f 52f
7:00 5 10 mph 1013.1mb 52f 52f
6:54 3 7 mph 1013mb 52f 52f
6:48 5 7 mph 1013mb 52f 52f
6:36 5 7 mph 1013mb 52f 52f
6:30 5 7 mph 1013mb 52f 52f
6:24 5 8 mph 1013mb 53f 52f
6:18 5 9 mph 1013mb 52f 52f
6:12 6 11 mph 1013mb 52f 52f
6:06 6 10 mph 1013mb 52f 52f
6:00 5 9 mph 1012.9mb 52f 52f
5:54 5 7 mph 1012.9mb 52f 52f
5:48 5 9 mph 1012.8mb 51f 52f
5:36 6 8 mph 1012.9mb 51f 52f
5:30 6 9 mph 1012.9mb 51f 52f
5:24 3 6 mph 1012.9mb 51f 52f
5:18 6 9 mph 1012.9mb 51f 52f
5:12 3 6 mph 1012.9mb 51f 52f
5:06 5 8 mph 1012.8mb 50f 52f
5:00 3 7 mph 1012.8mb 50f 52f
4:54 5 9 mph 1012.7mb 50f 52f
4:48 5 7 mph 1012.8mb 50f 52f
4:36 2 3 mph 1012.8mb 50f 52f
4:30 1 3 mph 1012.8mb 50f 52f
4:24 3 5 mph 1012.8mb 50f 52f
4:18 2 3 mph 1012.8mb 50f 52f
4:12 1 3 mph 1012.8mb 50f 52f
4:06 3 5 mph 1012.8mb 50f 52f
4:00 1 3 mph 1012.8mb 50f 52f
3:54 2 5 mph 1012.7mb 50f 52f
3:48 2 3 mph 1012.7mb 50f 52f
3:36 2 6 mph 1012.7mb 50f 52f
3:30 2 5 mph 1012.7mb 50f 52f
3:24 2 5 mph 1012.7mb 50f 52f
3:18 2 6 mph 1012.7mb 50f 52f
3:12 3 6 mph 1012.6mb 50f 52f
3:06 3 5 mph 1012.7mb 50f 52f
3:00 3 6 mph 1012.6mb 50f 52f
2:54 5 6 mph 1012.6mb 50f 53f
2:48 5 7 mph 1012.6mb 50f 52f
2:36 8 10 mph 1012.6mb 50f 53f
2:30 7 10 mph 1012.6mb 50f 53f
2:24 8 9 mph 1012.6mb 50f 53f
2:18 7 13 mph 1012.6mb 50f 53f
2:12 9 11 mph 1012.5mb 50f 53f
2:06 9 10 mph 1012.5mb 50f 53f
2:00 7 9 mph 1012.6mb 50f 53f
1:54 7 11 mph 1012.6mb 50f 53f
1:48 6 8 mph 1012.7mb 50f 52f
1:36 6 8 mph 1012.7mb 50f 53f
1:30 5 6 mph 1012.8mb 50f 53f
1:24 6 9 mph 1012.9mb 49f 53f
1:18 6 7 mph 1012.8mb 49f 53f
1:12 5 8 mph 1012.9mb 49f 53f
1:06 5 9 mph 1012.9mb 49f 53f
1:00 6 9 mph 1013mb 49f 53f
12:54 6 9 mph 1013mb 50f 53f
12:48 7 9 mph 1013mb 50f 53f
12:36 8 14 mph 1013.1mb 50f 53f
12:30 7 10 mph 1013.1mb 50f 53f
12:24 8 10 mph 1013.1mb 50f 53f
12:18 7 10 mph 1013.2mb 50f 53f
12:12 6 7 mph 1013.1mb 50f 53f
12:06 6 7 mph 1013.1mb 50f 53f
12:00 5 7 mph 1013.1mb 49f 53f
Sáb 05/21 11:54 6 7 mph 1013.2mb 47f 53f
11:48 3 8 mph 1013.2mb 47f 53f
11:36 7 9 mph 1013.2mb 47f 53f
11:30 7 9 mph 1013.2mb 47f 53f
11:24 6 8 mph 1013.2mb 47f 53f
11:18 7 10 mph 1013.2mb 48f 53f
11:12 7 8 mph 1013.2mb 47f 53f
11:06 6 7 mph 1013.2mb 47f 53f
11:00 6 7 mph 1013.2mb 48f 53f
10:54 6 7 mph 1013.2mb 48f 54f
10:48 6 10 mph 1013.2mb 48f 54f
10:36 7 11 mph 1013.2mb 48f 53f
10:30 5 7 mph 1013.2mb 48f 53f
10:24 5 7 mph 1013.2mb 48f 53f
10:18 6 7 mph 1013.1mb 48f 53f
10:12 6 8 mph 1013mb 48f 53f
10:06 6 9 mph 1013mb 48f 53f
10:00 6 8 mph 1013mb 48f 53f
9:54 6 7 mph 1012.9mb 48f 53f
9:48 6 8 mph 1012.9mb 48f 53f
9:36 7 10 mph 1012.7mb 48f 53f
9:30 8 11 mph 1012.6mb 48f 53f
9:24 10 11 mph 1012.5mb 48f 54f
9:18 9 13 mph 1012.4mb 49f 54f
9:12 7 9 mph 1012.4mb 48f 54f
9:06 7 9 mph 1012.4mb 48f 54f
9:00 8 10 mph 1012.3mb 49f 54f
8:54 8 10 mph 1012.2mb 48f 54f
8:48 7 9 mph 1012.2mb 48f 54f
8:36 9 10 mph 1012.2mb 48f 54f
8:30 8 11 mph 1012.2mb 48f 54f
8:24 7 10 mph 1012.1mb 48f 53f
8:18 8 10 mph 1012.1mb 48f 54f
8:12 8 11 mph 1012.1mb 48f 54f
8:06 10 13 mph 1012mb 48f 54f
8:00 9 11 mph 1011.8mb 48f 54f
7:54 7 10 mph 1011.7mb 48f 54f
7:48 6 10 mph 1011.7mb 48f 54f
7:36  -  mph 1011.5mb 48f -
7:30  -  mph 1011.6mb 48f -
7:24  -  mph 1011.6mb 48f -
7:18  -  mph 1011.6mb 48f -
7:12  -  mph 1011.5mb 48f -
7:06  -  mph 1011.5mb 48f -
7:00  -  mph 1011.5mb 47f -
6:54  -  mph 1011.4mb 47f -
6:48  -  mph 1011.4mb 47f -
6:36  -  mph 1011.3mb 47f 55f
6:30  -  mph 1011.3mb 47f 55f
6:24  -  mph 1011.3mb 47f 55f
6:18  -  mph 1011.3mb 47f 55f
6:12  -  mph 1011.3mb 46f 55f
6:06  -  mph 1011.3mb 46f 55f
6:00  -  mph 1011.3mb 46f 55f
5:54  -  mph 1011.4mb 46f 55f
5:48  -  mph 1011.3mb 46f 55f
5:36  -  mph 1011.3mb 46f 55f
5:30  -  mph 1011.2mb 46f 55f
5:24  -  mph 1011.2mb 46f 55f
5:18  -  mph 1011.1mb 46f 55f
5:12  -  mph 1011.1mb 46f 55f
5:06  -  mph 1011.1mb 46f 55f
5:00  -  mph 1011.1mb 45f 55f
4:54  -  mph 1011.1mb 45f 55f
4:48  -  mph 1011mb 46f 55f
4:36  -  mph - 46f 55f
4:30  -  mph - 46f 55f
4:24  -  mph - 45f 55f
4:18  -  mph - 45f 55f
4:12  -  mph - 45f 55f
4:06  -  mph - 45f 55f
4:00  -  mph - 45f 55f
3:36  -  mph 1010.5mb 46f 55f
3:30  -  mph 1010.5mb 46f 55f
3:24  -  mph 1010.5mb 46f 56f
3:18  -  mph 1010.5mb 45f 55f
3:12  -  mph 1010.5mb 45f 55f
3:06  -  mph 1010.4mb 45f 55f
3:00  -  mph 1010.5mb 46f 55f
2:54  -  mph 1010.5mb 46f 55f
2:48  -  mph 1010.4mb 46f 55f
2:36 9 13 mph 1010.3mb 46f 55f
2:30 9 13 mph 1010.3mb 46f 55f
2:24 10 14 mph 1010.2mb 46f 55f
2:18 10 14 mph 1010.1mb 46f 55f
2:12 10 13 mph 1010.2mb 46f 55f
2:06 10 14 mph 1010.1mb 46f 55f
2:00 10 13 mph 1010.1mb 46f 55f
1:54 9 13 mph 1010mb 46f 55f
1:48 10 13 mph 1010.1mb 46f 55f
1:36 11 14 mph 1010mb 46f 55f
1:30 11 14 mph 1009.9mb 46f 55f
1:24 9 13 mph 1009.8mb 45f 55f
1:18 9 13 mph 1009.8mb 45f 55f
1:12 9 11 mph 1009.7mb 45f 55f
1:06 9 13 mph 1009.7mb 45f 55f
1:00 9 13 mph 1009.7mb 45f 55f
12:54 9 14 mph 1009.7mb 45f 55f
12:48 8 14 mph 1009.7mb 45f 55f
12:36 10 14 mph 1009.8mb 45f 55f
12:30 10 14 mph 1009.8mb 45f 55f
12:24 11 14 mph 1009.7mb 45f 55f
12:18 10 13 mph 1009.7mb 45f 55f
12:12 8 13 mph 1009.6mb 44f 55f
12:06 9 11 mph 1009.5mb 44f 55f
12:00 9 10 mph 1009.6mb 44f 55f
11:54 8 10 mph 1009.6mb 44f 55f
11:48 8 10 mph 1009.5mb 44f 55f
11:36 9 11 mph 1009.5mb 44f 54f
11:30 9 13 mph 1009.4mb 45f 54f
11:24 10 13 mph 1009.3mb 45f 55f
11:18 8 10 mph 1009.3mb 45f 55f
11:12 8 10 mph 1009.3mb 44f 55f
11:06 6 8 mph 1009.3mb 44f 54f
11:00 8 10 mph 1009.3mb 44f 53f
10:54 9 11 mph 1009.2mb 45f 54f
10:48 8 10 mph 1009.2mb 45f 54f
10:36 7 9 mph 1009mb 45f 53f
10:30 8 11 mph 1009mb 45f 53f
10:24 8 10 mph 1009mb 45f 53f
10:18 8 10 mph 1009mb 45f 53f
10:12 7 8 mph 1009mb 45f 53f
10:06 7 9 mph 1009mb 46f 53f
10:00 7 8 mph 1009mb 46f 53f
9:54 7 8 mph 1008.9mb 46f 52f
9:48 6 7 mph 1008.9mb 45f 52f
9:36  -  2 mph 1008.9mb 46f 52f
9:30  -  1 mph 1008.9mb 46f 51f
9:24  -  3 mph 1008.9mb 47f 50f
9:18 3 5 mph 1008.9mb 47f 50f
9:12 5 6 mph 1009mb 47f 49f
9:06 5 6 mph 1009mb 47f 49f
9:00 6 7 mph 1009mb 48f 49f
8:54 5 7 mph 1009mb 48f 49f
8:48 2 7 mph 1008.9mb 49f 49f
8:36 5 8 mph 1008.8mb 50f 48f
8:30 7 8 mph 1008.8mb 51f 48f
8:24 5 7 mph 1008.8mb 51f 48f
8:18 6 8 mph 1008.8mb 51f 48f
8:12 7 9 mph 1008.8mb 52f 48f
8:06 7 9 mph 1008.8mb 52f 48f
8:00 7 10 mph 1008.8mb 52f 47f
7:54 8 10 mph 1008.7mb 52f 47f
7:48 6 8 mph 1008.6mb 53f 47f
7:36 6 9 mph 1008.5mb 53f 47f
7:30 7 8 mph 1008.5mb 53f 47f
7:24 6 8 mph 1008.5mb 53f 47f
7:18 6 9 mph 1008.5mb 53f 47f
7:12 7 9 mph 1008.5mb 53f 47f
7:06 6 8 mph 1008.4mb 53f 47f
7:00 7 9 mph 1008.4mb 53f 47f
6:54 7 9 mph 1008.4mb 53f 47f
6:48 7 9 mph 1008.3mb 53f 47f
6:36 7 9 mph 1008.3mb 52f 47f
6:30 5 7 mph 1008.4mb 52f 47f
6:24 7 9 mph 1008.4mb 52f 47f
6:18 7 9 mph 1008.4mb 52f 47f
6:12 5 8 mph 1008.4mb 52f 46f
6:06 7 9 mph 1008.4mb 52f 46f
6:00 6 8 mph 1008.4mb 53f 46f
5:54 7 11 mph 1008.5mb 53f 46f
5:48 8 11 mph 1008.5mb 53f 47f
5:36 7 10 mph 1008.3mb 53f 46f
5:30 6 8 mph 1008.2mb 53f 46f
5:24 7 8 mph 1008.2mb 52f 46f